DW4393 Weather Reports


Display with metric or nautical units.
time (UTC)temp
F
wind
direction
speed
MPH
gust
MPH
rain 1hr
in
rain 24hr
in
rain mn
in
humidity
%
barometer
mb
20260905204803 98 236 0.0 0.0 0.00 0.00 0.00 45 1009.4
20260905204303 97 244 0.0 0.0 0.00 0.00 0.00 47 1009.4
20260905203802 97 250 0.0 0.0 0.00 0.00 0.00 48 1009.5
20260905203302 96 250 0.0 0.0 0.00 0.00 0.00 47 1009.6
20260905201803 97 225 0.0 0.0 0.00 0.00 0.00 47 1009.8
20260905201303 98 242 0.0 0.0 0.00 0.00 0.00 45 1009.8
20260905200803 97 205 0.0 0.0 0.00 0.00 0.00 46 1009.9
20260905200303 98 209 0.0 0.0 0.00 0.00 0.00 44 1009.9
20260905194802 99 148 0.0 0.0 0.00 0.00 0.00 44 1010.0
20260905193802 99 149 0.0 0.0 0.00 0.00 0.00 48 1010.2
20260905193303 97 150 0.0 0.0 0.00 0.00 0.00 45 1010.2
20260905191803 98 153 0.0 0.0 0.00 0.00 0.00 44 1010.4
20260905191303 98 193 0.0 0.0 0.00 0.00 0.00 45 1010.4
20260905190803 98 199 0.0 0.0 0.00 0.00 0.00 46 1010.5
20260905184803 96 257 0.0 0.0 0.00 0.00 0.00 49 1010.8
20260905184303 95 249 0.0 0.0 0.00 0.00 0.00 50 1010.8
20260905183803 95 269 0.0 0.0 0.00 0.00 0.00 48 1010.8
20260905183302 96 269 0.0 0.0 0.00 0.00 0.00 48 1011.0
20260905181803 97 322 0.0 0.0 0.00 0.00 0.00 46 1011.2
20260905181303 97 138 0.0 0.0 0.00 0.00 0.00 46 1011.2
20260905180803 96 251 0.0 0.0 0.00 0.00 0.00 48 1011.4
20260905180303 95 303 0.0 0.0 0.00 0.00 0.00 51 1011.3
20260905174803 94 240 0.0 0.0 0.00 0.00 0.00 53 1011.5
20260905174303 94 219 0.0 0.0 0.00 0.00 0.00 52 1011.6
20260905173303 94 336 0.0 0.0 0.00 0.00 0.00 49 1011.8
20260905171802 94 184 0.0 0.0 0.00 0.00 0.00 54 1012.0
20260905171302 94 185 0.0 0.0 0.00 0.00 0.00 52 1012.0
20260905170802 95 227 0.0 0.0 0.00 0.00 0.00 53 1012.1
20260905170303 95 227 0.0 0.0 0.00 0.00 0.00 51 1012.2
20260905164803 94 302 0.0 0.0 0.00 0.00 0.00 51 1012.3
20260905164303 93 222 0.0 0.0 0.00 0.00 0.00 55 1012.4
20260905163803 93 221 0.0 0.0 0.00 0.00 0.00 57 1012.5
20260905163303 93 250 0.0 0.0 0.00 0.00 0.00 55 1012.6
20260905161803 91 203 0.0 0.0 0.00 0.00 0.00 58 1012.7
20260905161303 91 257 0.0 0.0 0.00 0.00 0.00 58 1012.8
20260905160803 91 255 0.0 0.0 0.00 0.00 0.00 57 1012.9
20260905160304 91 351 0.0 0.0 0.00 0.00 0.00 59 1012.8
20260905154803 90 69 0.0 0.0 0.00 0.00 0.00 59 1013.2
20260905154303 90 69 0.0 0.0 0.00 0.00 0.00 61 1013.2
20260905153803 90 157 0.0 0.0 0.00 0.00 0.00 61 1013.2
20260905153303 89 53 0.0 0.0 0.00 0.00 0.00 62 1013.3
20260905151803 89 78 0.0 0.0 0.00 0.00 0.00 65 1013.5
20260905151303 88 202 0.0 0.0 0.00 0.00 0.00 63 1013.4
20260905150803 88 202 0.0 0.0 0.00 0.00 0.00 65 1013.4
20260905150303 88 173 0.0 0.0 0.00 0.00 0.00 64 1013.5
20260905144803 86 190 0.0 0.0 0.00 0.00 0.00 67 1013.5
20260905144304 86 66 0.0 0.0 0.00 0.00 0.00 69 1013.6
20260905143802 85 23 0.0 0.0 0.00 0.00 0.00 68 1013.6
20260905143303 85 65 0.0 0.0 0.00 0.00 0.00 71 1013.6
20260905141803 83 130 0.0 0.0 0.00 0.00 0.00 75 1013.6
20260905141303 83 138 0.0 0.0 0.00 0.00 0.00 75 1013.7
20260905140804 82 138 0.0 0.0 0.00 0.00 0.00 78 1013.8
20260905140305 81 138 0.0 0.0 0.00 0.00 0.00 81 1013.7
20260905134803 79 155 0.0 0.0 0.00 0.00 0.00 87 1014.0
20260905133803 77 155 0.0 0.0 0.00 0.00 0.00 92 1014.0
20260905133303 76 155 0.0 0.0 0.00 0.00 0.00 93 1014.1
20260905131303 73 155 0.0 0.0 0.00 0.00 0.00 95 1014.2
20260905130803 73 155 0.0 0.0 0.00 0.00 0.00 95 1014.3
20260905130303 72 155 0.0 0.0 0.00 0.00 0.00 94 1014.3
20260905124803 72 155 0.0 0.0 0.00 0.00 0.00 93 1014.4
20260905123803 71 155 0.0 0.0 0.00 0.00 0.00 93 1014.4
20260905123304 71 155 0.0 0.0 0.00 0.00 0.00 93 1014.3
20260905121803 71 155 0.0 0.0 0.00 0.00 0.00 93 1014.1
20260905121303 71 155 0.0 0.0 0.00 0.00 0.00 93 1014.1
20260905120304 71 155 0.0 0.0 0.00 0.00 0.00 93 1014.1
20260905114803 71 155 0.0 0.0 0.00 0.00 0.00 93 1013.8
20260905114303 71 155 0.0 0.0 0.00 0.00 0.00 93 1013.7
20260905113803 71 155 0.0 0.0 0.00 0.00 0.00 92 1013.7
20260905111803 71 155 0.0 0.0 0.00 0.00 0.00 93 1013.5
20260905111303 71 155 0.0 0.0 0.00 0.00 0.00 93 1013.4
20260905110303 71 155 0.0 0.0 0.00 0.00 0.00 92 1013.5
20260905104303 72 155 0.0 0.0 0.00 0.00 0.00 92 1013.3
20260905103803 72 155 0.0 0.0 0.00 0.00 0.00 92 1013.3
20260905103303 72 155 0.0 0.0 0.00 0.00 0.00 92 1013.3
20260905101803 72 155 0.0 0.0 0.00 0.00 0.00 92 1013.2
20260905101303 72 155 0.0 0.0 0.00 0.00 0.00 92 1013.3
20260905100803 72 155 0.0 0.0 0.00 0.00 0.00 92 1013.3
20260905094803 72 155 0.0 0.0 0.00 0.00 0.00 92 1013.3
20260905094303 72 155 0.0 0.0 0.00 0.00 0.00 92 1013.2
20260905093803 72 155 0.0 0.0 0.00 0.00 0.00 92 1013.1
20260905093303 72 155 0.0 0.0 0.00 0.00 0.00 92 1013.1
20260905091803 72 155 0.0 0.0 0.00 0.00 0.00 92 1013.0
20260905091303 72 155 0.0 0.0 0.00 0.00 0.00 92 1012.9
20260905090804 73 155 0.0 0.0 0.00 0.00 0.00 92 1012.8
20260905090303 73 155 0.0 0.0 0.00 0.00 0.00 92 1012.8
20260905084803 73 155 0.0 0.0 0.00 0.00 0.00 92 1013.1
20260905084303 73 155 0.0 0.0 0.00 0.00 0.00 92 1013.0
20260905083807 73 155 0.0 0.0 0.00 0.00 0.00 92 1013.1
20260905083303 73 155 0.0 0.0 0.00 0.00 0.00 92 1013.1
20260905081804 73 155 0.0 0.0 0.00 0.00 0.00 92 1013.2
20260905081303 73 155 0.0 0.0 0.00 0.00 0.00 92 1013.1
20260905080803 73 155 0.0 0.0 0.00 0.00 0.00 92 1013.2
20260905080303 73 155 0.0 0.0 0.00 0.00 0.00 92 1013.2
20260905074803 74 155 0.0 0.0 0.00 0.00 0.00 92 1013.0
20260905074303 74 155 0.0 0.0 0.00 0.00 0.00 92 1013.0
20260905073803 74 155 0.0 0.0 0.00 0.00 0.00 92 1013.1
20260905073304 74 155 0.0 0.0 0.00 0.00 0.00 92 1013.1
20260905071303 74 155 0.0 0.0 0.00 0.00 0.00 92 1013.0
20260905070804 74 155 0.0 0.0 0.00 0.00 0.00 92 1013.1
20260905070304 74 155 0.0 0.0 0.00 0.00 0.00 92 1013.1
20260905064804 74 155 0.0 0.0 0.00 0.00 0.00 92 1013.2
20260905061804 74 155 0.0 0.0 0.00 0.00 0.00 92 1013.0
20260905061303 74 155 0.0 0.0 0.00 0.00 0.00 92 1013.0
20260905060804 74 155 0.0 0.0 0.00 0.00 0.00 92 1013.1
20260905060304 74 155 0.0 0.0 0.00 0.00 0.00 92 1013.2
20260905054803 75 155 0.0 0.0 0.00 0.00 0.00 92 1013.4
20260905054304 75 155 0.0 0.0 0.00 0.00 0.00 91 1013.4
20260905053803 75 155 0.0 0.0 0.00 0.00 0.00 91 1013.4
20260905053304 75 155 0.0 0.0 0.00 0.00 0.00 91 1013.6
20260905051804 75 155 0.0 0.0 0.00 0.00 0.00 91 1013.6
20260905051304 75 155 0.0 0.0 0.00 0.00 0.00 91 1013.6
20260905050804 75 155 0.0 0.0 0.00 0.00 0.00 91 1013.6
20260905050303 75 155 0.0 0.0 0.00 0.00 0.00 91 1013.8
20260905044804 75 155 0.0 0.0 0.00 0.00 0.00 91 1013.7
20260905044303 75 155 0.0 0.0 0.00 0.00 0.00 91 1013.7
20260905043803 75 155 0.0 0.0 0.00 0.00 0.00 91 1013.7
20260905043304 75 155 0.0 0.0 0.00 0.00 0.00 91 1013.6
20260905041804 76 155 0.0 0.0 0.00 0.00 0.00 90 1013.7
20260905040821 76 155 0.0 0.0 0.00 0.00 0.00 90 1013.7
20260905040304 76 155 0.0 0.0 0.00 0.00 0.00 89 1013.6
20260905034804 76 155 0.0 0.0 0.00 0.00 0.00 89 1013.7
20260905034304 76 155 0.0 0.0 0.00 0.00 0.00 89 1013.7
20260905033803 76 155 0.0 0.0 0.00 0.00 0.00 89 1013.7
20260905033304 76 155 0.0 0.0 0.00 0.00 0.00 89 1013.7
20260905031804 77 155 0.0 0.0 0.00 0.00 0.00 88 1014.0
20260905031304 77 155 0.0 0.0 0.00 0.00 0.00 88 1014.0
20260905030304 77 155 0.0 0.0 0.00 0.00 0.00 87 1014.1
20260905024804 78 155 0.0 0.0 0.00 0.00 0.00 87 1014.2
20260905024304 78 155 0.0 0.0 0.00 0.00 0.00 86 1014.2
20260905021804 79 155 0.0 0.0 0.00 0.00 0.00 85 1014.4
20260905020804 79 155 0.0 0.0 0.00 0.00 0.00 85 1014.6
20260905014803 80 155 0.0 0.0 0.00 0.00 0.00 83 1014.4
20260905013804 80 155 0.0 0.0 0.00 0.00 0.00 82 1014.3
20260905013304 80 155 0.0 0.0 0.00 0.00 0.00 82 1014.4
20260905011804 81 155 0.0 0.0 0.00 0.00 0.00 81 1014.2
20260905011303 81 155 0.0 0.0 0.00 0.00 0.00 81 1014.1
20260905010804 81 155 0.0 0.0 0.00 0.00 0.00 80 1014.1
20260905010303 82 155 0.0 0.0 0.00 0.00 0.00 79 1014.0
20260905004803 82 155 0.0 0.0 0.00 0.00 0.00 77 1014.1
20260905004304 83 155 0.0 0.0 0.00 0.00 0.00 77 1014.0
20260905003804 83 155 0.0 0.0 0.00 0.00 0.00 77 1013.9
20260905003304 83 155 0.0 0.0 0.00 0.00 0.00 76 1013.8
20260905001804 84 155 0.0 0.0 0.00 0.00 0.00 74 1013.6
20260905000304 86 155 0.0 0.0 0.00 0.00 0.00 72 1013.4
20260904234804 87 155 0.0 0.0 0.00 0.00 0.00 71 1013.4
20260904234303 87 155 0.0 0.0 0.00 0.00 0.00 70 1013.4
20260904233304 87 155 0.0 0.0 0.00 0.00 0.00 68 1013.4
20260904231303 88 155 0.0 0.0 0.00 0.00 0.00 65 1013.1
20260904230804 88 155 0.0 0.0 0.00 0.00 0.00 66 1013.0
20260904230304 88 155 0.0 0.0 0.00 0.00 0.00 66 1012.9
20260904224803 89 155 0.0 0.0 0.00 0.00 0.00 64 1012.9
20260904224303 90 155 0.0 0.0 0.00 0.00 0.00 63 1012.9
20260904223804 90 155 0.0 0.0 0.00 0.00 0.00 62 1012.9
20260904223302 91 155 0.0 0.0 0.00 0.00 0.00 61 1012.8
20260904221802 92 155 0.0 0.0 0.00 0.00 0.00 55 1012.9
20260904221302 92 155 0.0 0.0 0.00 0.00 0.00 54 1012.9
20260904220802 93 117 0.0 0.0 0.00 0.00 0.00 53 1012.7
20260904220302 93 117 0.0 0.0 0.00 0.00 0.00 52 1012.8
20260904214302 93 10 0.0 0.0 0.00 0.00 0.00 52 1013.0
20260904213802 93 10 0.0 0.0 0.00 0.00 0.00 51 1012.9
20260904213302 94 342 0.0 0.0 0.00 0.00 0.00 50 1012.9
20260904211302 94 86 0.0 0.0 0.00 0.00 0.00 50 1013.0
20260904210802 94 86 0.0 0.0 0.00 0.00 0.00 50 1013.0
20260904210303 94 86 0.0 0.0 0.00 0.00 0.00 49 1013.0